Location: Bukovany
(49.8234°N, 14.6297°E)
Time: 06:28:27
(UTC+00:00)

ATLAS CENTAUR R/B - Pass Details

Date: 17 November 2025
Orbit: 342 x 420 km, 64.6° (Epoch: 12 December)

Event Time Altitude Azimuth Distance (km) Brightness Sun altitude
Rises 16:43:40 0° 271° (W) 2,440 6.3 -14.1°
Reaches altitude 10° 16:46:29 10° 296° (WNW) 1,574 4.4 -14.5°
Maximum altitude 16:48:34 15° 332° (NNW) 1,307 3.4 -14.8°
Drops below altitude 10° 16:50:39 10° 9° (N) 1,572 3.4 -15.2°
Enters shadow 16:50:58 - 13° (NNE) 1,650 3.5 -15.2°
